#timestamp,LO_Frequency,Hit,StdDev 
1508349615.4,286047004.4,N
1508349635.2,286047004.1,N
1508349655.0,286047003.1,N
1508349655.9,286047003.1,N
1508349675.8,286047003.3,N
1508349695.6,286047003.0,N
1508349715.5,286047005.8,Y
1508349735.3,286047001.9,P
1508349755.1,286046999.7,N
1508349775.9,286047001.4,N
1508349795.7,286047001.9,N
1508349815.5,286047004.2,Y
1508349835.4,286046999.8,P
1508349855.2,286047001.7,N
1508349875.1,286047001.4,N
1508349876.0,286047001.4,N
1508349895.8,286047001.3,N
1508349915.6,286047006.0,Y
1508349935.5,286047001.8,P
1508349955.3,286047003.7,P
1508349975.1,286047004.1,P
1508349995.9,286047006.0,Y
1508350015.7,286047002.2,P
1508350035.6,286047002.8,P
1508350055.4,286047000.6,N
1508350075.2,286046999.7,N
1508350095.1,286047002.6,N
1508350096.0,286047002.6,N
1508350115.8,286047001.5,N
1508350135.6,286047001.9,N
1508350155.5,286047004.3,Y
1508350175.3,286047002.7,P
1508350195.2,286047002.0,P
1508350215.9,286047003.7,P
1508350235.7,286047003.3,Y
1508350255.6,286047004.2,P
1508350275.4,286047001.5,N
1508350295.2,286047002.0,N
1508350315.1,286047001.4,N
1508350316.0,286047001.4,N
1508350335.8,286047002.9,N
1508350355.7,286047001.8,N
1508350375.5,286047005.9,Y
1508350395.3,286047002.5,P
1508350415.2,286047001.9,P
1508350435.0,286047001.3,P
1508350435.9,286047001.3,N
1508350455.7,286047004.3,Y
1508350475.6,286047001.5,P
1508350495.4,286047000.2,N
1508350515.3,286047002.0,N
1508350535.1,286047001.4,N
1508350536.0,286047001.4,N
1508350555.8,286047001.5,N
1508350575.7,286047004.2,Y
1508350595.5,286046999.8,P
1508350615.3,286047000.1,N
1508350635.2,286047001.7,N
1508350655.0,286047002.0,N
1508350655.9,286047002.0,N
1508350675.8,286047001.4,N
1508350695.6,286047003.6,Y
1508350715.4,286047003.6,P
1508350735.3,286047003.6,N
1508350755.1,286047004.4,P
1508350775.8,286047003.1,N
1508350795.7,286047003.1,N
1508350815.5,286047004.8,Y
1508350835.4,286046999.7,P
1508350855.2,286047002.4,N
1508350875.0,286047002.8,N
1508350875.9,286047002.8,N
1508350895.8,286047000.3,N
1508350915.6,286047002.2,N
1508350935.4,286047001.8,N
1508350955.3,286047002.2,N
1508350975.1,286047004.3,Y
1508350995.9,286047000.3,P
1508351015.7,286047002.8,P
1508351035.5,286047001.5,N
1508351055.4,286047001.5,N
1508351075.2,286047001.3,N
1508351095.0,286047005.7,Y
1508351095.9,286047005.7,P
1508351115.8,286047002.2,N
1508351135.6,286047001.6,N
1508351155.5,286047003.6,N
1508351175.3,286047003.7,N
1508351195.1,286047005.9,Y
1508351215.9,286047001.7,P
1508351235.7,286047003.4,P
1508351255.5,286047004.2,P
1508351275.4,286047006.0,Y
1508351295.2,286047002.6,P
1508351315.1,286047002.6,P
1508351316.0,286047002.6,P
1508351335.8,286047002.1,Y
1508351355.6,286046998.4,P
1508351375.5,286047001.2,N
1508351395.3,286046998.1,N
1508351415.1,286046998.7,N
1508351435.9,286046999.7,N
1508351455.7,286047003.7,N
1508351475.6,286047003.7,N
1508351495.4,286047005.7,N
1508351515.2,286047005.2,N
1508351535.1,286047005.2,N
1508351536.0,286047005.2,N
1508351555.8,286047007.2,N
1508351575.7,286047006.6,N
1508351595.5,286047009.1,N
1508351615.3,286047006.5,N
1508351635.2,286047006.5,N
1508351655.0,286047006.7,N
1508351655.9,286047006.7,N
1508351675.7,286047008.8,N
1508351695.6,286047009.2,N
1508351715.4,286047008.3,N
1508351735.3,286047009.9,N
1508351755.1,286047010.6,Y
1508351756.0,286047010.6,P
1508351775.8,286047005.4,N
1508351795.7,286047004.8,N
1508351815.5,286047007.4,Y
1508351835.3,286047000.1,P
1508351855.2,286047000.4,N
1508351875.0,286046998.7,N
1508351875.9,286046998.7,N
1508351895.8,286046998.5,N
1508351915.6,286047000.1,N
1508351935.4,286047000.2,N
1508351955.3,286046999.7,N
1508351975.1,286046999.8,N
1508351995.8,286046999.7,N
1508352015.7,286047002.1,N
1508352035.5,286047002.1,N
1508352055.4,286047001.8,N
1508352075.2,286047001.8,N
1508352095.0,286047002.5,N
1508352095.9,286047002.5,N
1508352115.8,286047004.4,N
1508352135.6,286047004.4,N
1508352155.4,286047002.1,N
1508352175.3,286047001.9,N
1508352195.1,286047002.1,N
1508352215.9,286047005.9,N
1508352235.7,286047004.2,N
1508352255.5,286047003.3,N
1508352275.4,286047005.5,N
1508352295.2,286047005.4,N
1508352315.1,286047007.6,Y
1508352316.0,286047007.6,P
1508352335.8,286047003.0,N
1508352355.6,286047005.4,N
1508352375.5,286047003.3,N
1508352395.3,286047005.7,N
1508352415.2,286047007.2,Y
1508352435.9,286047002.8,P
1508352455.7,286047001.7,N
1508352475.6,286047003.9,P
1508352495.4,286047001.7,N
1508352515.2,286047003.8,Y
1508352535.1,286047000.1,P
1508352536.0,286047000.1,N
1508352555.8,286046999.9,N
1508352575.7,286047000.9,N
1508352595.5,286047001.9,N
1508352615.3,286047001.4,N
1508352635.2,286047001.7,N
1508352655.0,286047004.0,Y
1508352655.9,286047004.0,P
1508352675.8,286046999.9,N
1508352695.6,286046999.9,N
1508352715.4,286047002.3,N
1508352735.3,286047003.7,N
1508352755.1,286047005.4,Y
1508352775.8,286047005.5,P
1508352795.7,286047004.6,N
1508352815.5,286047006.3,P
1508352835.4,286047008.6,Y
1508352855.2,286047005.8,P
1508352875.0,286047005.5,P
1508352875.9,286047005.5,P
1508352895.8,286047004.8,Y
1508352915.6,286047000.6,P
1508352935.4,286047001.0,N
1508352955.3,286047000.6,N
1508352975.1,286047000.1,N
1508352995.9,286047000.1,N
1508353015.7,286047002.1,N
1508353035.5,286047001.6,N
1508353055.4,286047001.5,N
1508353075.2,286047002.4,N
1508353095.1,286047001.8,N
1508353096.0,286047001.8,N
1508353115.8,286047001.5,N
1508353135.6,286047003.9,N
1508353155.5,286047001.5,N
1508353175.3,286047003.8,N
1508353195.1,286047005.3,Y
